Showing default

PAKTES 1A, 43529

Orbit data source: Space-Track

PAKTES 1A, 43529 is a payload satellite owned by SUPARCO (PK) in SSO that was launched on Mon, 09 Jul 2018 UTC via a CHANG ZHENG 2C launch vehicle from the Jiuquan Satellite Launch Center, China (JSC). Payload-class satellites include a variety of spacecraft equipped with specific instruments for various scientific and technological missions. These include communications satellites like Starlink; space stations such as the ISS; scientific satellites like the Hubble; Earth observation satellites from companies like Planet Labs, Umbra, and HawkEye 360; GPS; miniature CubeSats for education and research; and military/defense satellites.

Loading next visibility...
Identifier
43529, 2018-056A
Orbit
SSO
Country
Flag of PKPK / PAKI
Related business
Manufacturer
SUPARCO
Mission
Operational Civil Imaging
Bus & Motor
PAKTES, Unknown motor
Mass
285 kg wet, 285 kg dry
Launch date (UTC)
2018-07-09 (8 years ago)
Launch vehicle
CHANG ZHENG 2C
Launch site
Jiuquan Satellite Launch Center, China (JSC)
Object type
Payload
Rocket body
Debris
Shape & HBR
Box + 1 Pan, 2.0 m
Radar Cross Section
5.935 m², Large (>1 m²)

Expand to show TLE details & history
Last TLE update: 6 hours ago

TLE from 6 hours ago
0 PAKTES 1A
1 43529U 18056A   26127.21860118  .00001108  00000-0  96808-4 0  9993
2 43529  98.1222 281.9785 0021349 246.3324 113.5656 14.98880308425784
Epoch: 2026-05-07T05:14Z
TLE epoch observation values (Epoch: 2026-05-07T05:14:47.141Z)
Latitude
-0.00015°
Longitude
-21.78579°
Altitude
579.354 km
Speed
7.568 km/s
True Right ascension
18h 47m 54s
True Declination
0° 00' 01"
Sunlit
Object was in full shadow at epoch
Visualization orbit readout
Latitude
Unknown
Longitude
Unknown
Altitude
Unknown
Speed
Unknown
Apparent Right ascension
Unknown
Apparent Declination
Unknown
Sunlit
N/A
Visualization observer readout
Local Sidereal Time
19:41:12
Azimuth
Unknown
Elevation
Unknown
Doppler factor
Unknown
Orbital elements
Apogee altitude
582.208 km
Perigee altitude
552.552 km
Semi-major axis
6,945.517 km
Eccentricity
0.00213
Inclination
98.1222°
RAAN
281.9785°
Arg. of periapsis
246.3324°
True anomaly
113.7896°
Mean anomaly
113.5656°
Eccentric anomaly
113.67762°
Mean motion
3.74961 °/min
Orbital period
96.01 mins
BSTAR
0.000096808
Loading maneuver chart data...
Computing Atmospheric mass density...
Loading historical data...
Loading historical data...
Loading historical data...
Loading historical data...
Loading historical data...
Loading historical data...
Loading historical data...

Documentation

Showing up to 5 results
|